DW2738 Weather Reports


Display with metric or nautical units.
time (UTC)temp
F
wind
direction
speed
MPH
gust
MPH
rain 1hr
in
rain 24hr
in
rain mn
in
humidity
%
barometer
mb
20260831035713 73 264 2.0 2.0 0.00 0.00 0.00 99 1018.4
20260831035207 72 248 2.0 2.0 0.00 0.00 0.00 99 1018.1
20260831034707 73 258 2.0 2.0 0.00 0.00 0.00 99 1018.1
20260831034202 73 258 2.0 2.0 0.00 0.00 0.00 99 1018.3
20260831033657 73 258 2.0 2.0 0.00 0.00 0.00 99 1018.4
20260831033157 73 276 1.0 2.0 0.00 0.00 0.00 99 1018.3
20260831032652 73 276 1.0 2.0 0.00 0.00 0.00 99 1018.3
20260831032148 73 276 1.0 2.0 0.00 0.00 0.00 99 1018.2
20260831031648 73 276 1.0 2.0 0.00 0.00 0.00 99 1018.3
20260831031147 73 276 1.0 2.0 0.00 0.00 0.00 99 1018.5
20260831030646 73 276 1.0 2.0 0.00 0.00 0.00 99 1018.4
20260831030145 73 255 1.0 1.0 0.00 0.00 0.00 99 1018.4
20260831025644 73 255 0.0 2.0 0.00 0.00 0.00 99 1018.4
20260831025139 73 270 1.0 2.0 0.00 0.00 0.00 99 1018.5
20260831024635 73 180 1.0 1.0 0.00 0.00 0.00 99 1018.4
20260831024134 73 249 1.0 2.0 0.00 0.00 0.00 99 1018.5
20260831023632 73 246 3.0 3.0 0.00 0.00 0.00 99 1018.6
20260831023131 73 270 1.0 2.0 0.00 0.00 0.00 99 1018.6
20260831022626 73 221 2.0 2.0 0.00 0.00 0.00 99 1018.5
20260831022121 73 232 3.0 3.0 0.00 0.00 0.00 99 1018.6
20260831021620 73 258 2.0 2.0 0.00 0.00 0.00 99 1018.7
20260831021116 73 246 0.0 1.0 0.00 0.00 0.00 99 1018.5
20260831020612 73 254 2.0 2.0 0.00 0.00 0.00 99 1018.7
20260831020106 73 246 1.0 1.0 0.00 0.00 0.00 99 1018.7
20260831015602 73 246 1.0 1.0 0.00 0.00 0.00 99 1018.8
20260831015057 73 255 1.0 1.0 0.00 0.00 0.00 99 1018.8
20260831014552 72 270 1.0 2.0 0.00 0.00 0.00 99 1018.9
20260831014047 72 270 1.0 2.0 0.00 0.00 0.00 99 1019.0
20260831013543 73 265 2.0 2.0 0.00 0.00 0.00 99 1018.8
20260831013037 72 255 1.0 2.0 0.00 0.00 0.00 98 1018.8
20260831012532 72 255 1.0 2.0 0.00 0.00 0.00 98 1018.9
20260831012027 74 203 0.0 1.0 0.00 0.00 0.00 97 1018.7
20260831011526 74 203 0.0 1.0 0.00 0.00 0.00 97 1018.8
20260831011022 74 203 0.0 1.0 0.00 0.00 0.00 97 1018.5
20260831010522 74 203 0.0 1.0 0.00 0.00 0.00 97 1018.8
20260831010019 74 203 0.0 1.0 0.00 0.00 0.00 97 1018.7
20260831005519 74 203 0.0 1.0 0.00 0.00 0.00 97 1019.0
20260831005019 74 246 0.0 1.0 0.00 0.00 0.00 97 1019.0
20260831004515 75 246 2.0 2.0 0.00 0.00 0.00 94 1018.8
20260831004010 75 246 2.0 2.0 0.00 0.00 0.00 94 1018.6
20260831003507 75 246 2.0 2.0 0.00 0.00 0.00 94 1018.6
20260831003001 75 246 2.0 2.0 0.00 0.00 0.00 94 1018.5
20260831002500 75 246 2.0 2.0 0.00 0.00 0.00 94 1018.4
20260831001955 75 246 2.0 2.0 0.00 0.00 0.00 94 1018.4
20260831001450 75 246 2.0 2.0 0.00 0.00 0.00 94 1018.4
20260831000947 76 255 0.0 1.0 0.00 0.00 0.00 94 1018.2
20260831000443 76 217 0.0 2.0 0.00 0.00 0.00 94 1018.4
20260830235941 76 285 2.0 2.0 0.00 0.00 0.00 93 1018.3
20260830235436 76 251 2.0 2.0 0.00 0.00 0.00 93 1018.1
20260830234931 76 253 2.0 2.0 0.00 0.00 0.00 92 1018.5
20260830234427 77 262 1.0 2.0 0.00 0.00 0.00 92 1018.2
20260830233922 77 255 0.0 2.0 0.00 0.00 0.00 92 1018.1
20260830233418 77 262 1.0 1.0 0.00 0.00 0.00 91 1018.0
20260830232913 77 234 1.0 3.0 0.00 0.00 0.00 90 1018.2
20260830232409 77 206 2.0 2.0 0.00 0.00 0.00 90 1018.3
20260830231906 78 99 0.0 3.0 0.00 0.00 0.00 90 1018.3
20260830231400 78 154 1.0 2.0 0.00 0.00 0.00 90 1018.1
20260830230900 78 229 0.0 2.0 0.00 0.00 0.00 89 1018.2
20260830230355 78 194 0.0 0.0 0.00 0.00 0.00 89 1018.3
20260830225854 78 131 0.0 4.0 0.00 0.00 0.00 88 1018.1
20260830225350 78 173 1.0 2.0 0.00 0.00 0.00 88 1018.1
20260830224844 78 250 3.0 3.0 0.00 0.00 0.00 88 1018.1
20260830224338 79 191 2.0 4.0 0.00 0.00 0.00 88 1018.1
20260830223835 79 174 0.0 3.0 0.00 0.00 0.00 87 1018.1
20260830223331 79 209 2.0 5.0 0.00 0.00 0.00 86 1018.0
20260830222831 79 239 4.0 7.0 0.00 0.00 0.00 86 1018.1
20260830222326 80 233 2.0 3.0 0.00 0.00 0.00 85 1017.9
20260830221821 80 270 3.0 3.0 0.00 0.00 0.00 85 1018.0
20260830221318 80 236 2.0 5.0 0.00 0.00 0.00 84 1017.9
20260830220818 80 142 2.0 3.0 0.00 0.00 0.00 84 1017.9
20260830220318 81 123 0.0 3.0 0.00 0.00 0.00 83 1017.9
20260830215815 81 261 2.0 3.0 0.00 0.00 0.00 80 1017.7
20260830215310 81 260 2.0 3.0 0.00 0.00 0.00 80 1017.7
20260830214806 81 254 2.0 3.0 0.00 0.00 0.00 82 1017.5
20260830214301 81 252 2.0 2.0 0.00 0.00 0.00 82 1017.8
20260830213800 81 245 2.0 2.0 0.00 0.00 0.00 79 1018.0
20260830213255 81 245 2.0 2.0 0.00 0.00 0.00 82 1017.8
20260830212751 81 257 2.0 3.0 0.00 0.00 0.00 79 1017.9
20260830212247 81 255 3.0 3.0 0.00 0.00 0.00 80 1017.9
20260830211746 81 252 2.0 2.0 0.00 0.00 0.00 79 1017.9
20260830211245 81 257 2.0 2.0 0.00 0.00 0.00 80 1017.8
20260830210741 81 248 2.0 3.0 0.00 0.00 0.00 78 1018.1
20260830210240 81 225 3.0 4.0 0.00 0.00 0.00 77 1018.0
20260830205738 82 262 2.0 5.0 0.00 0.00 0.00 77 1018.0
20260830205233 82 247 3.0 3.0 0.00 0.00 0.00 77 1017.9
20260830204728 82 262 3.0 3.0 0.00 0.00 0.00 80 1018.1
20260830204227 82 215 4.0 4.0 0.00 0.00 0.00 76 1018.0
20260830203723 82 240 3.0 6.0 0.00 0.00 0.00 77 1018.0
20260830203219 82 270 3.0 5.0 0.00 0.00 0.00 74 1018.1
20260830202718 82 231 2.0 4.0 0.00 0.00 0.00 73 1018.2
20260830202214 82 234 4.0 5.0 0.00 0.00 0.00 73 1018.3
20260830201713 83 233 3.0 3.0 0.00 0.00 0.00 73 1018.2
20260830201208 84 257 5.0 6.0 0.00 0.00 0.00 71 1018.2
20260830200703 86 243 3.0 4.0 0.00 0.00 0.00 69 1018.3
20260830200203 85 225 4.0 5.0 0.00 0.00 0.00 69 1018.3
20260830195658 85 180 0.0 5.0 0.00 0.00 0.00 70 1018.3
20260830195156 85 244 3.0 7.0 0.00 0.00 0.00 69 1018.5
20260830194655 85 260 4.0 4.0 0.00 0.00 0.00 69 1018.6
20260830194155 86 278 2.0 5.0 0.00 0.00 0.00 68 1018.8
20260830193650 85 237 2.0 5.0 0.00 0.00 0.00 69 1018.7
20260830193150 86 120 2.0 3.0 0.00 0.00 0.00 68 1018.7
20260830192646 85 195 2.0 6.0 0.00 0.00 0.00 69 1018.8
20260830192141 83 265 2.0 3.0 0.00 0.00 0.00 69 1018.7
20260830191637 84 324 0.0 6.0 0.00 0.00 0.00 68 1018.6
20260830191131 86 257 4.0 6.0 0.00 0.00 0.00 69 1019.0
20260830190626 84 209 2.0 5.0 0.00 0.00 0.00 69 1018.7
20260830190121 85 121 2.0 4.0 0.00 0.00 0.00 68 1019.1
20260830185614 86 250 4.0 5.0 0.00 0.00 0.00 67 1019.0
20260830185111 85 148 0.0 5.0 0.00 0.00 0.00 66 1019.0
20260830184609 86 276 2.0 5.0 0.00 0.00 0.00 67 1019.1
20260830184104 85 264 5.0 5.0 0.00 0.00 0.00 69 1019.3
20260830183559 85 265 4.0 5.0 0.00 0.00 0.00 71 1019.5
20260830183055 84 237 3.0 7.0 0.00 0.00 0.00 69 1019.7
20260830182549 85 255 5.0 5.0 0.00 0.00 0.00 65 1019.5
20260830182046 85 243 4.0 7.0 0.00 0.00 0.00 67 1019.5
20260830181542 84 236 0.0 5.0 0.00 0.00 0.00 65 1019.7
20260830181041 85 255 0.0 6.0 0.00 0.00 0.00 68 1019.5
20260830180541 85 240 3.0 5.0 0.00 0.00 0.00 67 1019.9
20260830180040 85 255 2.0 6.0 0.00 0.00 0.00 66 1019.9
20260830175539 85 259 3.0 6.0 0.00 0.00 0.00 69 1019.8
20260830175034 84 244 3.0 5.0 0.00 0.00 0.00 66 1019.7
20260830174530 84 148 3.0 5.0 0.00 0.00 0.00 65 1019.8
20260830174025 84 242 5.0 5.0 0.00 0.00 0.00 68 1020.0
20260830173521 84 299 3.0 5.0 0.00 0.00 0.00 66 1020.0
20260830173015 84 254 2.0 4.0 0.00 0.00 0.00 67 1020.0
20260830172512 84 153 0.0 7.0 0.00 0.00 0.00 66 1020.2
20260830172008 83 190 2.0 5.0 0.00 0.00 0.00 65 1020.3
20260830171503 84 246 3.0 5.0 0.00 0.00 0.00 66 1020.4
20260830171003 84 221 2.0 5.0 0.00 0.00 0.00 67 1020.6
20260830170458 84 132 2.0 8.0 0.00 0.00 0.00 67 1020.5
20260830165956 85 260 3.0 5.0 0.00 0.00 0.00 67 1020.5
20260830165452 84 294 3.0 7.0 0.00 0.00 0.00 67 1020.5
20260830164948 84 275 6.0 6.0 0.00 0.00 0.00 70 1020.4
20260830164443 85 252 4.0 5.0 0.00 0.00 0.00 68 1020.9
20260830163940 84 261 5.0 6.0 0.00 0.00 0.00 69 1020.6
20260830163436 83 300 3.0 6.0 0.00 0.00 0.00 69 1020.8
20260830162936 84 246 0.0 7.0 0.00 0.00 0.00 69 1020.7
20260830162432 84 255 4.0 5.0 0.00 0.00 0.00 71 1020.7
20260830161931 82 180 0.0 3.0 0.00 0.00 0.00 70 1020.8
20260830161431 84 223 5.0 6.0 0.00 0.00 0.00 70 1020.7
20260830160926 83 155 3.0 5.0 0.00 0.00 0.00 69 1020.7
20260830160423 83 254 3.0 6.0 0.00 0.00 0.00 68 1020.9
20260830155917 82 241 3.0 7.0 0.00 0.00 0.00 70 1020.8
20260830155414 82 119 0.0 5.0 0.00 0.00 0.00 70 1021.1
20260830154908 83 228 4.0 7.0 0.00 0.00 0.00 70 1020.8
20260830154404 82 214 3.0 3.0 0.00 0.00 0.00 73 1020.8
20260830153901 83 252 5.0 5.0 0.00 0.00 0.00 73 1020.7
20260830153356 82 215 4.0 5.0 0.00 0.00 0.00 74 1021.0
20260830152855 81 255 1.0 5.0 0.00 0.00 0.00 75 1021.2
20260830152350 81 253 3.0 5.0 0.00 0.00 0.00 81 1021.2
20260830151844 80 225 3.0 5.0 0.00 0.00 0.00 78 1021.2
20260830151343 80 225 2.0 3.0 0.00 0.00 0.00 78 1021.0
20260830150839 80 180 1.0 3.0 0.00 0.00 0.00 78 1021.1
20260830150338 80 251 2.0 6.0 0.00 0.00 0.00 78 1021.5
20260830145832 79 166 1.0 4.0 0.00 0.00 0.00 77 1021.4
20260830145327 79 274 3.0 4.0 0.00 0.00 0.00 78 1021.5
20260830144823 79 212 0.0 4.0 0.00 0.00 0.00 77 1021.5
20260830144318 79 203 0.0 5.0 0.00 0.00 0.00 77 1021.6
20260830143814 78 251 3.0 6.0 0.00 0.00 0.00 78 1021.7
20260830143309 79 195 1.0 2.0 0.00 0.00 0.00 77 1021.7
20260830142803 78 260 2.0 3.0 0.00 0.00 0.00 78 1021.8
20260830142258 78 180 1.0 5.0 0.00 0.00 0.00 79 1021.7
20260830141753 78 208 3.0 5.0 0.00 0.00 0.00 79 1021.7
20260830141248 78 259 2.0 4.0 0.00 0.00 0.00 80 1021.8
20260830140743 78 217 4.0 4.0 0.00 0.00 0.00 79 1022.0
20260830140238 78 233 2.0 4.0 0.00 0.00 0.00 81 1022.0
20260830135732 77 221 0.0 3.0 0.00 0.00 0.00 83 1021.9
20260830135228 76 279 3.0 4.0 0.00 0.00 0.00 84 1022.3
20260830134723 76 215 1.0 5.0 0.00 0.00 0.00 84 1022.1
20260830134218 76 143 3.0 5.0 0.00 0.00 0.00 82 1022.2
20260830133714 76 240 1.0 3.0 0.00 0.00 0.00 84 1022.3
20260830133210 76 261 0.0 4.0 0.00 0.00 0.00 87 1022.2
20260830132705 75 258 5.0 5.0 0.00 0.00 0.00 85 1022.1
20260830132201 75 250 2.0 4.0 0.00 0.00 0.00 86 1022.3
20260830131659 74 279 0.0 6.0 0.00 0.00 0.00 87 1022.3
20260830131159 74 256 3.0 3.0 0.00 0.00 0.00 88 1022.3
20260830130654 75 262 3.0 4.0 0.00 0.00 0.00 87 1022.3
20260830130154 74 233 0.0 3.0 0.00 0.00 0.00 88 1022.5
20260830125649 75 303 0.0 4.0 0.00 0.00 0.00 88 1022.7
20260830125144 72 254 1.0 4.0 0.00 0.00 0.00 92 1022.6
20260830124642 71 252 2.0 4.0 0.00 0.00 0.00 96 1022.6
20260830124137 69 281 2.0 2.0 0.00 0.00 0.00 99 1022.7
20260830123634 68 232 3.0 3.0 0.00 0.00 0.00 99 1022.8
20260830123129 66 254 2.0 2.0 0.00 0.00 0.00 99 1022.9
20260830122626 64 264 1.0 3.0 0.00 0.00 0.00 99 1022.9
20260830122122 64 263 3.0 3.0 0.00 0.00 0.00 99 1022.8
20260830121618 63 255 1.0 2.0 0.00 0.00 0.00 99 1022.9
20260830121117 62 228 2.0 2.0 0.00 0.00 0.00 99 1022.8
20260830120612 62 270 0.0 1.0 0.00 0.00 0.00 99 1022.8
20260830120108 61 240 1.0 1.0 0.00 0.00 0.00 99 1022.7
20260830115604 60 259 2.0 3.0 0.00 0.00 0.00 99 1022.8
20260830115059 60 237 2.0 2.0 0.00 0.00 0.00 99 1022.9
20260830114556 60 254 1.0 1.0 0.00 0.00 0.00 99 1022.8
20260830114055 59 220 0.0 2.0 0.00 0.00 0.00 99 1022.4
20260830113550 58 278 1.0 1.0 0.00 0.00 0.00 99 1022.7
20260830113046 55 285 1.0 1.0 0.00 0.00 0.00 99 1022.7
20260830112542 55 285 1.0 1.0 0.00 0.00 0.00 99 1022.9
20260830112038 55 285 1.0 1.0 0.00 0.00 0.00 99 1022.5
20260830111533 55 285 1.0 1.0 0.00 0.00 0.00 99 1022.6
20260830111029 55 285 1.0 1.0 0.00 0.00 0.00 99 1022.8
20260830110529 55 285 1.0 1.0 0.00 0.00 0.00 99 1022.8
20260830110024 55 285 1.0 1.0 0.00 0.00 0.00 99 1022.8
20260830105519 55 286 0.0 1.0 0.00 0.00 0.00 99 1022.9
20260830105016 55 286 0.0 1.0 0.00 0.00 0.00 99 1022.8
20260830104512 55 279 0.0 0.0 0.00 0.00 0.00 99 1022.7
20260830104008 55 270 0.0 0.0 0.00 0.00 0.00 99 1022.6
20260830103503 55 286 0.0 1.0 0.00 0.00 0.00 99 1022.6
20260830103001 55 278 0.0 1.0 0.00 0.00 0.00 99 1022.5
20260830102456 55 262 0.0 0.0 0.00 0.00 0.00 99 1022.6
20260830101952 55 262 0.0 0.0 0.00 0.00 0.00 99 1022.5
20260830101448 55 254 0.0 1.0 0.00 0.00 0.00 99 1022.7
20260830100947 55 254 0.0 1.0 0.00 0.00 0.00 99 1022.6
20260830100446 55 254 0.0 1.0 0.00 0.00 0.00 99 1022.3
20260830095944 55 254 0.0 1.0 0.00 0.00 0.00 99 1022.7
20260830095441 55 254 1.0 1.0 0.00 0.00 0.00 99 1022.6
20260830094937 55 279 0.0 1.0 0.00 0.00 0.00 99 1022.5
20260830094433 55 279 0.0 1.0 0.00 0.00 0.00 99 1022.5
20260830093928 54 246 0.0 1.0 0.00 0.00 0.00 99 1022.8
20260830093423 55 285 0.0 1.0 0.00 0.00 0.00 99 1022.6
20260830092919 55 286 1.0 1.0 0.00 0.00 0.00 99 1022.7
20260830092409 55 254 0.0 0.0 0.00 0.00 0.00 99 1022.6
20260830091906 55 261 0.0 0.0 0.00 0.00 0.00 99 1022.7
20260830091405 55 246 0.0 1.0 0.00 0.00 0.00 99 1022.7
20260830090904 54 270 0.0 0.0 0.00 0.00 0.00 99 1022.7
20260830090400 54 270 0.0 0.0 0.00 0.00 0.00 99 1022.7
20260830085859 54 270 0.0 0.0 0.00 0.00 0.00 99 1022.7
20260830085354 54 270 0.0 0.0 0.00 0.00 0.00 99 1022.8
20260830084851 54 270 0.0 0.0 0.00 0.00 0.00 99 1022.6
20260830084346 54 270 0.0 0.0 0.00 0.00 0.00 99 1022.5
20260830083841 54 270 0.0 0.0 0.00 0.00 0.00 99 1022.5
20260830083337 54 279 0.0 0.0 0.00 0.00 0.00 99 1022.4
20260830082836 54 315 0.0 2.0 0.00 0.00 0.00 99 1022.5
20260830082331 55 194 0.0 0.0 0.00 0.00 0.00 99 1022.6
20260830081827 55 194 0.0 0.0 0.00 0.00 0.00 99 1022.7
20260830081326 55 194 0.0 0.0 0.00 0.00 0.00 99 1022.5
20260830080821 55 194 0.0 0.0 0.00 0.00 0.00 99 1022.6
20260830080318 55 194 0.0 0.0 0.00 0.00 0.00 99 1022.8
20260830075816 55 194 0.0 0.0 0.00 0.00 0.00 99 1022.7
20260830075312 55 194 0.0 0.0 0.00 0.00 0.00 99 1022.6
20260830074807 55 194 0.0 0.0 0.00 0.00 0.00 99 1022.6
20260830074303 55 194 0.0 0.0 0.00 0.00 0.00 99 1022.9
20260830073758 55 194 0.0 0.0 0.00 0.00 0.00 99 1022.9
20260830073255 55 194 0.0 0.0 0.00 0.00 0.00 99 1022.6
20260830072754 55 194 0.0 0.0 0.00 0.00 0.00 99 1022.5
20260830072250 55 194 0.0 0.0 0.00 0.00 0.00 99 1022.5
20260830071744 55 194 0.0 0.0 0.00 0.00 0.00 99 1022.6
20260830071244 55 194 0.0 0.0 0.00 0.00 0.00 99 1022.7
20260830070743 55 194 0.0 0.0 0.00 0.00 0.00 99 1022.5
20260830070238 55 194 0.0 0.0 0.00 0.00 0.00 99 1022.7
20260830065737 55 194 0.0 0.0 0.00 0.00 0.00 99 1022.8
20260830065232 55 194 0.0 0.0 0.00 0.00 0.00 99 1022.6
20260830064730 55 194 0.0 0.0 0.00 0.00 0.00 99 1022.8
20260830064226 55 194 0.0 0.0 0.00 0.00 0.00 99 1022.7
20260830063720 55 194 0.0 0.0 0.00 0.00 0.00 99 1022.9
20260830063219 56 194 0.0 0.0 0.00 0.00 0.00 99 1022.8
20260830062714 56 194 0.0 0.0 0.00 0.00 0.00 99 1023.2
20260830062209 56 194 0.0 0.0 0.00 0.00 0.00 99 1023.0
20260830061708 56 194 0.0 0.0 0.00 0.00 0.00 99 1023.2
20260830061204 56 194 0.0 0.0 0.00 0.00 0.00 99 1023.1
20260830060701 57 194 0.0 0.0 0.00 0.00 0.00 99 1022.9
20260830060157 57 194 0.0 0.0 0.00 0.00 0.00 99 1023.2
20260830055651 57 194 0.0 0.0 0.00 0.00 0.00 99 1023.3
20260830055149 58 258 2.0 2.0 0.00 0.00 0.00 99 1023.2
20260830054643 58 258 2.0 2.0 0.00 0.00 0.00 99 1023.4
20260830054137 58 258 2.0 2.0 0.00 0.00 0.00 99 1023.2
20260830053628 58 258 2.0 2.0 0.00 0.00 0.00 99 1023.1
20260830053127 58 258 2.0 2.0 0.00 0.00 0.00 99 1023.1
20260830052623 58 258 2.0 2.0 0.00 0.00 0.00 99 1023.1
20260830052119 58 258 2.0 2.0 0.00 0.00 0.00 99 1023.1
20260830051613 58 258 2.0 2.0 0.00 0.00 0.00 99 1023.2
20260830051109 58 258 2.0 2.0 0.00 0.00 0.00 99 1023.0
20260830050607 58 258 2.0 2.0 0.00 0.00 0.00 99 1023.0
20260830045601 58 262 1.0 1.0 0.00 0.00 0.00 99 1023.0
20260830045056 58 294 1.0 2.0 0.00 0.00 0.00 99 1023.1
20260830044555 58 294 1.0 2.0 0.00 0.00 0.00 99 1023.1
20260830044051 58 270 1.0 2.0 0.00 0.00 0.00 99 1022.8
20260830043546 58 270 1.0 2.0 0.00 0.00 0.00 99 1023.0
20260830043045 58 246 0.0 2.0 0.00 0.00 0.00 99 1022.8
20260830042543 58 249 1.0 2.0 0.00 0.00 0.00 99 1022.9
20260830042038 59 246 1.0 1.0 0.00 0.00 0.00 99 1022.7
20260830041537 59 270 1.0 1.0 0.00 0.00 0.00 99 1022.8
20260830041037 59 270 1.0 2.0 0.00 0.00 0.00 99 1022.7
20260830040532 59 261 0.0 2.0 0.00 0.00 0.00 99 1022.4